Погода в Брно

Чехия     49°11′32″N   16°36′18″E
темп.,
°C
ветер,
м/с
пор.,
м/с
влажн.,
%
обл.,
%
осадки,
мм/ч
давл.,
гПа
погр.,
м
11 мая, вт
вт1123:00+15вюв4148519 0.0 1011516
02:00+15вюв513794 0.0 1010531
05:00+13вюв413771 0.0 1009494
08:00+16юв616615 0.0 1009748
11:00+21ююв816481 0.0 10091056
14:00+24ююв81647100 0.0 10071689
17:00+23ююв814515 0.0 10061265
20:00+19ююв615631 0.0 10051062
12 мая, ср
ср1223:00+17ююв414650 0.0 1006716
02:00+12юз229651 0.0 100825
05:00+14сз1288100 0.0 1008143
08:00+14сз2377100 0.1 1008265
11:00+17ссз1272100 0.1 1007582
14:00+18ююв127836 1.1 1006609
17:00+20юз01685 1.5 1004767
20:00+14ююз2495100 5.4 100395
13 мая, чт
чт1323:00+13ююз1298100 1.8 100370
02:00+12юз1198100 2.2 1003122
05:00+11з2596100 0.3 1001313
08:00+10зюз3697100 3.2 1002371
11:00+10зюз3795100 2.6 1002569
14:00+10з3896100 9.9 1002568
17:00+10з4994100 2.9 1002690
20:00+9з51194100 6.4 1003725
14 мая, пт
пт1423:00+8з51190100 0.4 1004795
02:00+7з51189100 0.4 1003887
05:00+7з51193100 0.9 1004934
08:00+7з51194100 4.4 1005890
11:00+8з51093100 2.4 1006780
14:00+8з41092100 3.0 1008728
17:00+10зсз3786100 0.4 1008837
20:00+9зсз248998 0.4 1009125
15 мая, сб
сб1523:00+6сз119471 0.0 101010
02:00+6зюз119599 0.0 101110
05:00+5сз11955 0.0 101110
08:00+10зюз128121 0.0 1011259
11:00+16зюз235838 0.1 10101375
14:00+16юз2359100 1.2 10091344
17:00+18ююз115277 0.6 10081434
20:00+12вюв1183100 1.6 100810